TimeEST,TemperatureF,Dew PointF,Humidity,Sea Level PressureIn,VisibilityMPH,Wind Direction,Wind SpeedMPH,Gust SpeedMPH,PrecipitationIn,Events,Conditions,WindDirDegrees,DateUTC
12:54 AM,33.1,30.9,92,30.24,10.0,Calm,Calm,-,N/A,,Clear,0,2012-11-10 05:54:00
1:54 AM,32.0,30.0,92,30.24,10.0,Calm,Calm,-,N/A,,Clear,0,2012-11-10 06:54:00
2:54 AM,32.0,30.0,92,30.25,9.0,Calm,Calm,-,N/A,,Clear,0,2012-11-10 07:54:00
3:54 AM,30.9,30.0,96,30.27,8.0,Calm,Calm,-,N/A,,Clear,0,2012-11-10 08:54:00
4:54 AM,30.9,28.9,92,30.28,7.0,Calm,Calm,-,N/A,,Clear,0,2012-11-10 09:54:00
5:54 AM,30.0,28.9,96,30.30,7.0,Calm,Calm,-,N/A,,Clear,0,2012-11-10 10:54:00
6:54 AM,30.0,28.9,96,30.31,5.0,South,3.5,-,N/A,,Clear,180,2012-11-10 11:54:00
7:54 AM,34.0,32.0,92,30.35,8.0,Calm,Calm,-,N/A,,Clear,0,2012-11-10 12:54:00
8:54 AM,45.0,37.0,74,30.35,8.0,Calm,Calm,-,N/A,,Clear,0,2012-11-10 13:54:00
9:54 AM,51.1,36.0,56,30.34,10.0,Calm,Calm,-,N/A,,Clear,0,2012-11-10 14:54:00
10:54 AM,52.0,35.1,53,30.35,10.0,Calm,Calm,-,N/A,,Overcast,0,2012-11-10 15:54:00
11:54 AM,55.0,36.0,49,30.33,10.0,Calm,Calm,-,N/A,,Mostly Cloudy,0,2012-11-10 16:54:00
12:54 PM,57.0,35.1,44,30.32,10.0,WNW,3.5,-,N/A,,Overcast,300,2012-11-10 17:54:00
1:54 PM,57.0,35.1,44,30.31,10.0,Calm,Calm,-,N/A,,Overcast,0,2012-11-10 18:54:00
2:54 PM,57.0,35.1,44,30.32,10.0,Calm,Calm,-,N/A,,Overcast,0,2012-11-10 19:54:00
3:54 PM,55.9,37.9,51,30.33,10.0,Calm,Calm,-,N/A,,Overcast,0,2012-11-10 20:54:00
4:54 PM,52.0,39.0,61,30.34,10.0,Calm,Calm,-,N/A,,Clear,0,2012-11-10 21:54:00
5:54 PM,48.9,37.9,66,30.36,10.0,SE,3.5,-,N/A,,Clear,130,2012-11-10 22:54:00
6:54 PM,48.9,37.9,66,30.37,10.0,East,3.5,-,N/A,,Mostly Cloudy,100,2012-11-10 23:54:00
7:54 PM,45.0,37.9,76,30.38,10.0,Calm,Calm,-,N/A,,Clear,0,2012-11-11 00:54:00
8:54 PM,44.1,37.9,79,30.40,9.0,Calm,Calm,-,N/A,,Clear,0,2012-11-11 01:54:00
9:54 PM,39.9,37.0,89,30.41,7.0,Calm,Calm,-,N/A,,Clear,0,2012-11-11 02:54:00
11:54 PM,39.0,37.0,93,30.42,6.0,Calm,Calm,-,N/A,,Clear,0,2012-11-11 04:54:00